TimeEST,TemperatureF,Dew PointF,Humidity,Sea Level PressureIn,VisibilityMPH,Wind Direction,Wind SpeedMPH,Gust SpeedMPH,PrecipitationIn,Events,Conditions,WindDirDegrees,DateUTC
12:54 AM,39.0,30.9,73,29.84,-9999.0,NNW,9.2,18.4,N/A,,Overcast,340,2012-11-08 05:54:00
1:54 AM,39.0,30.9,73,29.84,-9999.0,North,9.2,19.6,0.00,Rain,Light Rain,350,2012-11-08 06:54:00
2:54 AM,39.0,30.9,73,29.84,-9999.0,North,10.4,-,0.00,,Overcast,350,2012-11-08 07:54:00
3:54 AM,39.0,30.9,73,29.85,-9999.0,North,10.4,-,0.00,,Overcast,350,2012-11-08 08:54:00
4:54 AM,37.9,30.0,73,29.86,-9999.0,NNW,11.5,-,N/A,,Overcast,340,2012-11-08 09:54:00
5:54 AM,39.0,30.0,70,29.87,-9999.0,NNW,12.7,18.4,N/A,,Mostly Cloudy,340,2012-11-08 10:54:00
6:54 AM,39.0,30.9,73,29.88,-9999.0,NNW,9.2,-,N/A,,Overcast,330,2012-11-08 11:54:00
7:54 AM,39.9,32.0,73,29.90,-9999.0,NW,8.1,-,N/A,,Mostly Cloudy,310,2012-11-08 12:54:00
8:54 AM,46.0,30.9,56,29.89,-9999.0,NW,13.8,18.4,N/A,,Mostly Cloudy,310,2012-11-08 13:54:00
9:54 AM,48.0,26.1,42,29.89,-9999.0,NNW,15.0,23.0,N/A,,Mostly Cloudy,330,2012-11-08 14:54:00
10:54 AM,50.0,24.1,36,29.88,-9999.0,North,12.7,21.9,N/A,,Mostly Cloudy,350,2012-11-08 15:54:00
11:54 AM,51.1,23.0,33,29.85,-9999.0,NNW,16.1,24.2,N/A,,Clear,330,2012-11-08 16:54:00
12:54 PM,52.0,23.0,32,29.85,-9999.0,NNW,16.1,24.2,N/A,,Clear,340,2012-11-08 17:54:00
1:54 PM,52.0,19.9,28,29.85,-9999.0,NNW,16.1,28.8,N/A,,Scattered Clouds,330,2012-11-08 18:54:00
2:54 PM,53.1,19.0,26,29.85,-9999.0,NNW,13.8,25.3,N/A,,Clear,340,2012-11-08 19:54:00
3:54 PM,52.0,19.9,28,29.87,-9999.0,NNW,12.7,24.2,N/A,,Clear,340,2012-11-08 20:54:00
4:54 PM,50.0,19.9,31,29.89,-9999.0,NNW,8.1,-,N/A,,Clear,340,2012-11-08 21:54:00
5:54 PM,45.0,21.0,39,29.92,-9999.0,NW,4.6,-,N/A,,Clear,320,2012-11-08 22:54:00
6:54 PM,44.1,21.9,42,29.94,-9999.0,NW,6.9,-,N/A,,Clear,320,2012-11-08 23:54:00
7:54 PM,43.0,24.1,47,29.95,-9999.0,NW,8.1,-,N/A,,Clear,310,2012-11-09 00:54:00
8:54 PM,44.1,24.1,45,29.96,-9999.0,NNW,12.7,-,N/A,,Clear,330,2012-11-09 01:54:00
9:54 PM,44.1,23.0,43,29.97,-9999.0,NNW,11.5,-,N/A,,Clear,330,2012-11-09 02:54:00
10:54 PM,44.1,23.0,43,29.98,-9999.0,NNW,10.4,-,N/A,,Clear,330,2012-11-09 03:54:00
11:54 PM,43.0,24.1,47,30.00,-9999.0,NNW,10.4,-,N/A,,Clear,330,2012-11-09 04:54:00